CW8014 Weather Reports


Display with metric or nautical units.
time (UTC)temp
F
wind
direction
speed
MPH
gust
MPH
rain 1hr
in
rain 24hr
in
rain mn
in
humidity
%
barometer
mb
20260506102402 53 54 6.0 14.0 0.00 0.00 0.00 64 1008.6
20260506101402 53 49 4.0 11.0 0.00 0.00 0.00 65 1008.6
20260506095405 53 49 4.0 11.0 0.00 0.00 0.00 65 1008.5
20260506094405 53 75 3.0 9.0 0.00 0.00 0.00 66 1008.5
20260506093402 52 43 3.0 12.0 0.00 0.00 0.00 66 1008.5
20260506092402 52 360 3.0 9.0 0.00 0.00 0.00 67 1008.5
20260506091402 52 114 2.0 9.0 0.00 0.00 0.00 67 1008.5
20260506090402 52 17 5.0 10.0 0.00 0.00 0.00 67 1008.5
20260506085402 52 360 2.0 6.0 0.00 0.00 0.00 68 1008.4
20260506084402 51 44 3.0 12.0 0.00 0.00 0.00 67 1008.3
20260506083403 51 52 3.0 7.0 0.00 0.00 0.00 71 1008.2
20260506082403 51 57 2.0 4.0 0.00 0.00 0.00 71 1008.2
20260506081403 51 71 2.0 7.0 0.00 0.00 0.00 72 1008.1
20260506080403 50 30 3.0 11.0 0.00 0.00 0.00 75 1008.1
20260506072403 50 15 4.0 9.0 0.00 0.00 0.00 82 1007.9
20260506071403 50 309 4.0 10.0 0.00 0.00 0.00 82 1007.9
20260506070403 50 360 3.0 7.0 0.00 0.00 0.00 83 1007.9
20260506061404 50 355 3.0 8.0 0.00 0.00 0.00 82 1007.8
20260506051404 49 360 3.0 7.0 0.00 0.00 0.00 83 1007.8
20260506044404 50 360 3.0 6.0 0.00 0.00 0.00 81 1007.8
20260506043404 50 36 3.0 6.0 0.00 0.00 0.00 80 1007.8
20260506042404 50 23 4.0 8.0 0.00 0.00 0.00 79 1007.7
20260506041404 50 336 3.0 7.0 0.00 0.00 0.00 79 1007.6
20260506040404 50 43 4.0 9.0 0.00 0.00 0.00 79 1007.7
20260506034405 50 43 3.0 8.0 0.00 0.00 0.00 82 1007.8
20260506033405 50 130 1.0 7.0 0.00 0.00 0.00 84 1007.8
20260506032405 50 360 3.0 10.0 0.00 0.00 0.00 84 1007.9
20260506030408 50 9 3.0 7.0 0.00 0.00 0.00 85 1007.9
20260506025405 50 20 3.0 7.0 0.00 0.00 0.00 86 1008.0
20260506024405 50 57 3.0 6.0 0.00 0.00 0.00 86 1008.0
20260506023405 50 22 3.0 7.0 0.00 0.00 0.00 86 1008.1
20260506022405 50 17 3.0 8.0 0.00 0.00 0.00 87 1008.1
20260506020408 50 29 3.0 6.0 0.00 0.00 0.00 88 1008.2
20260506015405 50 16 3.0 7.0 0.00 0.00 0.00 88 1008.3
20260506012405 50 19 3.0 6.0 0.00 0.00 0.00 89 1008.3
20260506011405 50 9 3.0 8.0 0.00 0.00 0.00 89 1008.4
20260506010405 50 29 3.0 8.0 0.00 0.00 0.00 89 1008.4
20260506004406 50 346 4.0 7.0 0.00 0.00 0.00 88 1008.6
20260506003406 50 355 4.0 8.0 0.00 0.00 0.00 87 1008.6
20260506002406 50 360 3.0 5.0 0.00 0.00 0.00 87 1008.7
20260506000409 50 355 4.0 8.0 0.00 0.00 0.00 86 1008.8
20260505235407 50 360 3.0 10.0 0.00 0.00 0.00 86 1009.0
20260505234406 50 17 4.0 9.0 0.00 0.00 0.00 85 1009.1
20260505233409 50 5 3.0 6.0 0.00 0.00 0.00 85 1009.1
20260505232406 50 5 6.0 10.0 0.00 0.00 0.00 85 1009.0
20260505231406 50 17 5.0 12.0 0.00 0.00 0.00 85 1009.1
20260505230407 50 344 3.0 8.0 0.00 0.00 0.00 85 1009.1
20260505224407 50 360 5.0 10.0 0.00 0.00 0.00 84 1009.2
20260505222406 50 5 4.0 11.0 0.00 0.00 0.00 84 1009.3
20260505220407 50 360 5.0 10.0 0.00 0.00 0.00 83 1009.4
20260505215407 50 346 4.0 11.0 0.00 0.00 0.00 83 1009.5
20260505214407 50 11 4.0 10.0 0.00 0.00 0.00 83 1009.7
20260505213407 50 5 3.0 8.0 0.00 0.00 0.00 83 1009.7
20260505212410 50 119 3.0 6.0 0.00 0.00 0.00 83 1009.7
20260505211407 50 5 5.0 11.0 0.00 0.00 0.00 83 1009.7
20260505210407 50 17 3.0 7.0 0.00 0.00 0.00 84 1009.8
20260505205407 50 360 4.0 10.0 0.00 0.00 0.00 83 1009.9
20260505204407 50 25 5.0 10.0 0.00 0.00 0.00 83 1009.9
20260505203407 50 9 5.0 11.0 0.00 0.00 0.00 83 1010.0
20260505202407 50 344 5.0 12.0 0.00 0.00 0.00 84 1010.0
20260505201410 50 346 5.0 9.0 0.00 0.00 0.00 84 1009.9
20260505195407 50 9 4.0 10.0 0.00 0.00 0.00 84 1009.9
20260505193408 50 355 4.0 11.0 0.00 0.00 0.00 84 1009.8
20260505192407 51 355 4.0 9.0 0.00 0.00 0.00 85 1009.8
20260505191408 51 11 5.0 10.0 0.00 0.00 0.00 84 1009.7
20260505190408 51 360 4.0 9.0 0.00 0.00 0.00 85 1009.6
20260505185408 51 342 4.0 8.0 0.00 0.00 0.00 84 1009.6
20260505183408 51 345 7.0 12.0 0.00 0.00 0.00 84 1009.5
20260505181408 51 5 6.0 12.0 0.00 0.00 0.00 84 1009.5
20260505175408 52 37 6.0 11.0 0.00 0.00 0.00 83 1009.7
20260505174411 52 328 6.0 13.0 0.00 0.00 0.00 83 1009.6
20260505173408 52 360 7.0 12.0 0.00 0.00 0.00 82 1009.7
20260505172408 52 9 7.0 13.0 0.00 0.00 0.00 82 1009.7
20260505171408 53 13 7.0 12.0 0.00 0.00 0.00 82 1009.8
20260505165409 54 346 8.0 13.0 0.00 0.00 0.00 80 1009.7
20260505164409 54 11 4.0 9.0 0.00 0.00 0.00 81 1009.7
20260505163412 54 97 3.0 9.0 0.00 0.00 0.00 81 1009.7
20260505162409 54 5 6.0 11.0 0.00 0.00 0.00 78 1009.7
20260505161409 55 333 6.0 11.0 0.00 0.00 0.00 78 1009.6
20260505160409 55 51 4.0 9.0 0.00 0.00 0.00 77 1009.7
20260505151409 56 355 5.0 10.0 0.00 0.00 0.00 74 1010.0
20260505150409 56 355 5.0 9.0 0.00 0.00 0.00 77 1010.0
20260505140404 56 5 5.0 11.0 0.00 0.00 0.00 79 1010.3
20260505124405 54 360 2.0 5.0 0.00 0.00 0.00 83 1010.9
20260505123406 53 350 4.0 9.0 0.00 0.00 0.00 81 1011.0
20260505122405 53 15 3.0 8.0 0.00 0.00 0.00 80 1011.0
20260505121405 53 24 2.0 4.0 0.00 0.00 0.00 82 1010.9
20260505120406 53 5 3.0 6.0 0.00 0.00 0.00 82 1011.0
20260505115405 54 325 3.0 7.0 0.00 0.00 0.00 83 1011.0
20260505114405 53 57 3.0 8.0 0.00 0.00 0.00 84 1011.1
20260505112405 53 355 4.0 8.0 0.00 0.00 0.00 83 1011.1
20260505111406 52 350 4.0 8.0 0.00 0.00 0.00 82 1011.2
20260505110408 53 69 2.0 4.0 0.00 0.00 0.00 83 1011.3